TOM4CT EGKK-LEMG

Flight info

Callsign TOM4CT
Flight time 2h 22m
Altitude 33000
Route IMVUR N63 SAM M195 MARUK/N0454F350 N621 LELNA DCT NOVAN DCT DELOG DCT CRISA N864 VULPE
Aircraft B738/M-SDE2E3FGHIRWXY/LB1

Departure

Time 2026-05-04 12:24
Airport London Gatwick Airport (EGKK)

Arrival

Time 2026-05-04 14:46
Airport Málaga-Costa del Sol Airport (LEMG)
Time Latitude Longitude Altitude Speed Heading
2026-05-04 11:42 51.15823 -0.16951 199 ft 0 kts 88°
2026-05-04 11:59 51.15822 -0.16970 199 ft 2 kts 88°
2026-05-04 12:00 51.15822 -0.16994 199 ft 2 kts 88°
2026-05-04 12:00 51.15821 -0.17018 199 ft 2 kts 75°
2026-05-04 12:00 51.15813 -0.17038 199 ft 2 kts 34°
2026-05-04 12:00 51.15799 -0.17045 199 ft 2 kts
2026-05-04 12:01 51.15785 -0.17051 199 ft 2 kts 17°
2026-05-04 12:01 51.15775 -0.17055 199 ft 1 kts 14°
2026-05-04 12:02 51.15725 -0.17055 199 ft 0 kts 345°
2026-05-04 12:04 51.15736 -0.17059 199 ft 5 kts 345°
2026-05-04 12:04 51.15786 -0.17081 199 ft 7 kts 345°
2026-05-04 12:04 51.15800 -0.17088 199 ft 0 kts 339°
2026-05-04 12:05 51.15810 -0.17122 199 ft 8 kts 279°
2026-05-04 12:05 51.15797 -0.17258 199 ft 17 kts 258°
2026-05-04 12:05 51.15767 -0.17482 199 ft 21 kts 258°
2026-05-04 12:05 51.15734 -0.17709 199 ft 20 kts 258°
2026-05-04 12:06 51.15704 -0.17927 199 ft 22 kts 258°
2026-05-04 12:06 51.15669 -0.18188 199 ft 21 kts 257°
2026-05-04 12:06 51.15630 -0.18347 199 ft 13 kts 201°
2026-05-04 12:06 51.15527 -0.18326 199 ft 19 kts 171°
2026-05-04 12:07 51.15396 -0.18280 199 ft 18 kts 167°
2026-05-04 12:07 51.15288 -0.18242 199 ft 13 kts 167°
2026-05-04 12:07 51.15223 -0.18219 199 ft 5 kts 173°
2026-05-04 12:07 51.15194 -0.18252 199 ft 7 kts 246°
2026-05-04 12:08 51.15182 -0.18360 199 ft 11 kts 256°
2026-05-04 12:08 51.15161 -0.18514 199 ft 17 kts 259°
2026-05-04 12:08 51.15132 -0.18730 199 ft 24 kts 258°
2026-05-04 12:08 51.15096 -0.18994 199 ft 22 kts 258°
2026-05-04 12:09 51.15068 -0.19194 199 ft 8 kts 257°
2026-05-04 12:09 51.15048 -0.19259 199 ft 6 kts 213°
2026-05-04 12:09 51.15005 -0.19265 199 ft 7 kts 170°
2026-05-04 12:09 51.14964 -0.19290 199 ft 8 kts 237°
2026-05-04 12:10 51.14948 -0.19384 199 ft 10 kts 260°
2026-05-04 12:10 51.14926 -0.19548 199 ft 18 kts 258°
2026-05-04 12:10 51.14900 -0.19736 199 ft 16 kts 257°
2026-05-04 12:10 51.14876 -0.19907 199 ft 15 kts 258°
2026-05-04 12:11 51.14855 -0.20064 199 ft 13 kts 258°
2026-05-04 12:11 51.14834 -0.20212 199 ft 14 kts 257°
2026-05-04 12:11 51.14814 -0.20360 199 ft 12 kts 258°
2026-05-04 12:11 51.14796 -0.20493 199 ft 11 kts 258°
2026-05-04 12:12 51.14780 -0.20608 199 ft 10 kts 257°
2026-05-04 12:12 51.14765 -0.20710 199 ft 8 kts 257°
2026-05-04 12:12 51.14754 -0.20794 199 ft 5 kts 258°
2026-05-04 12:12 51.14752 -0.20805 199 ft 0 kts 258°
2026-05-04 12:14 51.14717 -0.21065 199 ft 3 kts 258°
2026-05-04 12:15 51.14716 -0.21078 199 ft 0 kts 258°
2026-05-04 12:16 51.14713 -0.21102 199 ft 6 kts 258°
2026-05-04 12:16 51.14704 -0.21164 199 ft 5 kts 258°
2026-05-04 12:16 51.14699 -0.21200 199 ft 0 kts 258°
2026-05-04 12:18 51.14694 -0.21240 199 ft 9 kts 258°
2026-05-04 12:19 51.14666 -0.21327 199 ft 8 kts 208°
2026-05-04 12:19 51.14624 -0.21329 199 ft 0 kts 168°
2026-05-04 12:19 51.14621 -0.21328 199 ft 0 kts 168°
2026-05-04 12:20 51.14620 -0.21328 199 ft 0 kts 168°
2026-05-04 12:21 51.14591 -0.21318 199 ft 7 kts 165°
2026-05-04 12:21 51.14543 -0.21277 199 ft 9 kts 137°
2026-05-04 12:21 51.14519 -0.21178 199 ft 9 kts 88°
2026-05-04 12:21 51.14524 -0.21133 199 ft 0 kts 77°
2026-05-04 12:22 51.14525 -0.21133 199 ft 0 kts 77°
2026-05-04 12:23 51.14527 -0.21115 199 ft 14 kts 77°
2026-05-04 12:24 51.14601 -0.20584 199 ft 82 kts 77°
2026-05-04 12:24 51.14767 -0.19378 199 ft 140 kts 78°
2026-05-04 12:24 51.15007 -0.17638 397 ft 170 kts 78°
2026-05-04 12:24 51.15231 -0.15864 1134 ft 170 kts 77°
2026-05-04 12:25 51.15453 -0.13940 1631 ft 183 kts 77°
2026-05-04 12:25 51.15728 -0.11930 2071 ft 192 kts 74°
2026-05-04 12:25 51.16087 -0.09791 2414 ft 209 kts 71°
2026-05-04 12:25 51.16778 -0.07707 2841 ft 221 kts 51°
2026-05-04 12:26 51.17947 -0.06080 2978 ft 225 kts 29°
2026-05-04 12:26 51.19430 -0.05402 2981 ft 226 kts
2026-05-04 12:26 51.21000 -0.05742 3044 ft 236 kts 345°
2026-05-04 12:26 51.22412 -0.07033 3798 ft 238 kts 315°
2026-05-04 12:27 51.23344 -0.09208 4434 ft 245 kts 295°
2026-05-04 12:27 51.23804 -0.11879 4848 ft 261 kts 274°
2026-05-04 12:27 51.23494 -0.14762 5331 ft 272 kts 245°
2026-05-04 12:27 51.22533 -0.17369 6064 ft 273 kts 236°
2026-05-04 12:28 51.21624 -0.19976 6767 ft 275 kts 249°
2026-05-04 12:28 51.21162 -0.22939 7453 ft 279 kts 265°
2026-05-04 12:28 51.21381 -0.26026 7912 ft 283 kts 285°
2026-05-04 12:28 51.22009 -0.28967 7994 ft 284 kts 290°
2026-05-04 12:29 51.22720 -0.31871 7997 ft 281 kts 291°
2026-05-04 12:29 51.23445 -0.34770 7999 ft 282 kts 291°
2026-05-04 12:29 51.24192 -0.37749 8407 ft 291 kts 291°
2026-05-04 12:29 51.24930 -0.40668 9283 ft 286 kts 291°
2026-05-04 12:30 51.25561 -0.43682 9893 ft 288 kts 278°
2026-05-04 12:30 51.25596 -0.46816 10547 ft 288 kts 264°
2026-05-04 12:30 51.25372 -0.50025 11186 ft 291 kts 261°
2026-05-04 12:30 51.24850 -0.53182 11511 ft 305 kts 245°
2026-05-04 12:31 51.23780 -0.56171 11846 ft 318 kts 237°
2026-05-04 12:31 51.22539 -0.59140 12155 ft 333 kts 236°
2026-05-04 12:31 51.21257 -0.62327 12472 ft 348 kts 238°
2026-05-04 12:31 51.20004 -0.65661 12975 ft 356 kts 239°
2026-05-04 12:32 51.18765 -0.69116 13664 ft 359 kts 240°
2026-05-04 12:32 51.16323 -0.76083 15006 ft 365 kts 240°
2026-05-04 12:32 51.15091 -0.79603 15655 ft 369 kts 240°
2026-05-04 12:33 51.13835 -0.83182 16289 ft 373 kts 240°
2026-05-04 12:33 51.12577 -0.86751 16933 ft 376 kts 239°
2026-05-04 12:33 51.11292 -0.90387 17544 ft 380 kts 239°
2026-05-04 12:33 51.09994 -0.94050 18167 ft 384 kts 239°
2026-05-04 12:34 51.08673 -0.97768 18793 ft 387 kts 239°
2026-05-04 12:34 51.07353 -1.01479 19481 ft 388 kts 239°
2026-05-04 12:34 51.06024 -1.05209 20124 ft 389 kts 239°
2026-05-04 12:34 51.04693 -1.08935 20751 ft 391 kts 239°
2026-05-04 12:35 51.03359 -1.12665 21343 ft 393 kts 239°
2026-05-04 12:35 51.01999 -1.16460 21950 ft 394 kts 239°
2026-05-04 12:35 51.00657 -1.20205 22513 ft 396 kts 238°
2026-05-04 12:35 50.99290 -1.24017 23087 ft 398 kts 238°
2026-05-04 12:36 50.97910 -1.27819 23625 ft 399 kts 237°
2026-05-04 12:36 50.96413 -1.31481 24146 ft 400 kts 232°
2026-05-04 12:36 50.94591 -1.34838 24601 ft 402 kts 223°
2026-05-04 12:36 50.92488 -1.37686 25089 ft 403 kts 217°
2026-05-04 12:37 50.90213 -1.40277 25532 ft 406 kts 214°
2026-05-04 12:37 50.87863 -1.42752 25998 ft 408 kts 212°
2026-05-04 12:37 50.85459 -1.45207 26494 ft 410 kts 212°
2026-05-04 12:37 50.83035 -1.47661 26924 ft 413 kts 212°
2026-05-04 12:38 50.80611 -1.50120 27366 ft 415 kts 212°
2026-05-04 12:38 50.78186 -1.52591 27795 ft 417 kts 212°
2026-05-04 12:38 50.75741 -1.55093 28223 ft 419 kts 212°
2026-05-04 12:38 50.73301 -1.57596 28600 ft 422 kts 212°
2026-05-04 12:39 50.71007 -1.59953 29008 ft 423 kts 212°
2026-05-04 12:39 50.68512 -1.62516 29372 ft 426 kts 212°
2026-05-04 12:39 50.66039 -1.65057 29785 ft 427 kts 211°
2026-05-04 12:39 50.63522 -1.67643 30447 ft 423 kts 211°
2026-05-04 12:40 50.61078 -1.70153 30945 ft 421 kts 211°
2026-05-04 12:40 50.58616 -1.72678 31270 ft 422 kts 211°
2026-05-04 12:40 50.56133 -1.75221 31622 ft 423 kts 211°
2026-05-04 12:40 50.53674 -1.77737 31918 ft 424 kts 211°
2026-05-04 12:41 50.51202 -1.80260 32216 ft 425 kts 211°
2026-05-04 12:41 50.48756 -1.82757 32552 ft 425 kts 211°
2026-05-04 12:41 50.46281 -1.85279 32793 ft 427 kts 211°
2026-05-04 12:41 50.43790 -1.87813 33072 ft 428 kts 211°
2026-05-04 12:42 50.41297 -1.90348 33373 ft 428 kts 211°
2026-05-04 12:42 50.38781 -1.92902 33676 ft 428 kts 211°
2026-05-04 12:42 50.36322 -1.95395 33939 ft 428 kts 211°
2026-05-04 12:42 50.33810 -1.97938 34145 ft 429 kts 211°
2026-05-04 12:43 50.31304 -2.00472 34352 ft 430 kts 211°
2026-05-04 12:43 50.28817 -2.02964 34558 ft 430 kts 210°
2026-05-04 12:43 50.26209 -2.05285 34741 ft 431 kts 205°
2026-05-04 12:43 50.23448 -2.07152 34939 ft 430 kts 198°
2026-05-04 12:44 50.20562 -2.08238 34969 ft 430 kts 188°
2026-05-04 12:44 50.14601 -2.09122 34981 ft 428 kts 183°
2026-05-04 12:45 50.08653 -2.09617 34986 ft 427 kts 183°
2026-05-04 12:45 50.02753 -2.10179 34985 ft 426 kts 183°
2026-05-04 12:46 49.96903 -2.11203 34991 ft 426 kts 191°
2026-05-04 12:46 49.91207 -2.13557 34984 ft 427 kts 196°
2026-05-04 12:47 49.85498 -2.16350 34994 ft 429 kts 197°
2026-05-04 12:47 49.79854 -2.19112 34993 ft 428 kts 197°
2026-05-04 12:48 49.74169 -2.21829 34993 ft 427 kts 196°
2026-05-04 12:48 49.68483 -2.24498 34994 ft 429 kts 196°
2026-05-04 12:49 49.62795 -2.27141 34994 ft 427 kts 196°
2026-05-04 12:49 49.57133 -2.29758 34992 ft 426 kts 196°
2026-05-04 12:50 49.51443 -2.32378 34993 ft 427 kts 196°
2026-05-04 12:50 49.45765 -2.34985 34993 ft 428 kts 196°
2026-05-04 12:51 49.40096 -2.37583 34993 ft 428 kts 196°
2026-05-04 12:51 49.34417 -2.40178 34990 ft 427 kts 196°
2026-05-04 12:52 49.28711 -2.42779 34993 ft 427 kts 196°
2026-05-04 12:52 49.23033 -2.45361 34995 ft 427 kts 196°
2026-05-04 12:53 49.17359 -2.47935 34989 ft 427 kts 196°
2026-05-04 12:53 49.11668 -2.50511 34988 ft 427 kts 196°
2026-05-04 12:54 49.06009 -2.53065 34976 ft 427 kts 196°
2026-05-04 12:54 49.00339 -2.55619 34977 ft 426 kts 196°
2026-05-04 12:55 48.94661 -2.58171 34973 ft 426 kts 196°
2026-05-04 12:55 48.88973 -2.60722 34979 ft 426 kts 196°
2026-05-04 12:56 48.83281 -2.63267 34974 ft 427 kts 196°
2026-05-04 12:56 48.77620 -2.65791 34974 ft 426 kts 195°
2026-05-04 12:57 48.71945 -2.68318 34963 ft 426 kts 195°
2026-05-04 12:57 48.66278 -2.70835 34969 ft 427 kts 195°
2026-05-04 12:58 48.60553 -2.73373 34964 ft 427 kts 195°
2026-05-04 12:58 48.54870 -2.75884 34972 ft 427 kts 195°
2026-05-04 12:59 48.49160 -2.78402 34967 ft 427 kts 195°
2026-05-04 12:59 48.43478 -2.80901 34962 ft 428 kts 195°
2026-05-04 13:00 48.37749 -2.83417 34964 ft 427 kts 195°
2026-05-04 13:00 48.32075 -2.85902 34953 ft 427 kts 195°
2026-05-04 13:01 48.26359 -2.88399 34955 ft 427 kts 195°
2026-05-04 13:01 48.20670 -2.90877 34945 ft 427 kts 195°
2026-05-04 13:02 48.14951 -2.93364 34947 ft 429 kts 195°
2026-05-04 13:02 48.09246 -2.95840 34947 ft 429 kts 195°
2026-05-04 13:03 48.03503 -2.98325 34943 ft 428 kts 195°
2026-05-04 13:03 47.97826 -3.00776 34949 ft 429 kts 195°
2026-05-04 13:04 47.92093 -3.03247 34943 ft 429 kts 195°
2026-05-04 13:04 47.86332 -3.05747 34948 ft 429 kts 195°
2026-05-04 13:05 47.80650 -3.08192 34946 ft 429 kts 195°
2026-05-04 13:05 47.74896 -3.10638 34944 ft 429 kts 195°
2026-05-04 13:06 47.69184 -3.13066 34953 ft 429 kts 195°
2026-05-04 13:06 47.63423 -3.15516 34952 ft 430 kts 195°
2026-05-04 13:07 47.57694 -3.17948 34957 ft 429 kts 195°
2026-05-04 13:07 47.51969 -3.20372 34959 ft 430 kts 195°
2026-05-04 13:08 47.46223 -3.22801 34961 ft 429 kts 195°
2026-05-04 13:08 47.40507 -3.25213 34962 ft 430 kts 195°
2026-05-04 13:09 47.34741 -3.27642 34964 ft 431 kts 195°
2026-05-04 13:09 47.28991 -3.30059 34965 ft 430 kts 195°
2026-05-04 13:10 47.23266 -3.32458 34964 ft 430 kts 195°
2026-05-04 13:10 47.17514 -3.34864 34966 ft 431 kts 195°
2026-05-04 13:11 47.11756 -3.37267 34964 ft 431 kts 195°
2026-05-04 13:11 47.06026 -3.39652 34966 ft 430 kts 195°
2026-05-04 13:12 47.00268 -3.42043 34961 ft 431 kts 195°
2026-05-04 13:12 46.94519 -3.44425 34965 ft 430 kts 195°
2026-05-04 13:13 46.88750 -3.46811 34966 ft 430 kts 195°
2026-05-04 13:13 46.83003 -3.49183 34966 ft 431 kts 195°
2026-05-04 13:14 46.77254 -3.51550 34965 ft 430 kts 195°
2026-05-04 13:14 46.71515 -3.53907 34970 ft 431 kts 195°
2026-05-04 13:15 46.65740 -3.56273 34967 ft 431 kts 195°
2026-05-04 13:15 46.60003 -3.58619 34966 ft 432 kts 195°
2026-05-04 13:16 46.54223 -3.60977 34966 ft 431 kts 196°
2026-05-04 13:16 46.48447 -3.63329 34974 ft 431 kts 196°
2026-05-04 13:17 46.42693 -3.65666 34976 ft 431 kts 195°
2026-05-04 13:17 46.36948 -3.67995 34982 ft 431 kts 195°
2026-05-04 13:18 46.31107 -3.70060 34981 ft 431 kts 189°
2026-05-04 13:18 46.25160 -3.71190 34987 ft 431 kts 186°
2026-05-04 13:19 46.19211 -3.72010 34986 ft 432 kts 185°
2026-05-04 13:19 46.13229 -3.72822 34986 ft 431 kts 185°
2026-05-04 13:20 46.07293 -3.73661 34985 ft 431 kts 186°
2026-05-04 13:20 46.01318 -3.74529 34985 ft 432 kts 186°
2026-05-04 13:21 45.95366 -3.75404 34987 ft 431 kts 186°
2026-05-04 13:21 45.89429 -3.76279 34983 ft 432 kts 186°
2026-05-04 13:22 45.83433 -3.77163 34986 ft 432 kts 186°
2026-05-04 13:22 45.77483 -3.78038 34989 ft 432 kts 186°
2026-05-04 13:23 45.71512 -3.78915 34984 ft 431 kts 186°
2026-05-04 13:23 45.65569 -3.79785 34986 ft 432 kts 186°
2026-05-04 13:24 45.59592 -3.80658 34983 ft 431 kts 186°
2026-05-04 13:24 45.53607 -3.81531 34983 ft 432 kts 186°
2026-05-04 13:25 45.44662 -3.82832 34988 ft 432 kts 186°
2026-05-04 13:25 45.38672 -3.83701 34985 ft 432 kts 186°
2026-05-04 13:26 45.32682 -3.84568 34984 ft 432 kts 186°
2026-05-04 13:26 45.26714 -3.85430 34983 ft 432 kts 186°
2026-05-04 13:27 45.20741 -3.86291 34986 ft 431 kts 186°
2026-05-04 13:27 45.14801 -3.87145 34986 ft 431 kts 186°
2026-05-04 13:28 45.08823 -3.88004 34983 ft 431 kts 186°
2026-05-04 13:28 45.02848 -3.88860 34982 ft 432 kts 186°
2026-05-04 13:29 44.96903 -3.89709 34986 ft 432 kts 187°
2026-05-04 13:29 44.90936 -3.90560 34986 ft 432 kts 187°
2026-05-04 13:30 44.84921 -3.91416 34984 ft 432 kts 187°
2026-05-04 13:30 44.78966 -3.92262 34987 ft 431 kts 187°
2026-05-04 13:31 44.73018 -3.93105 34988 ft 431 kts 187°
2026-05-04 13:31 44.67055 -3.93948 34994 ft 431 kts 187°
2026-05-04 13:32 44.61083 -3.94791 34989 ft 431 kts 187°
2026-05-04 13:32 44.55102 -3.95634 34984 ft 431 kts 187°
2026-05-04 13:33 44.49158 -3.96469 34986 ft 431 kts 187°
2026-05-04 13:33 44.43213 -3.97303 34991 ft 431 kts 187°
2026-05-04 13:34 44.37257 -3.98137 34997 ft 431 kts 187°
2026-05-04 13:34 44.31278 -3.98965 34998 ft 431 kts 187°
2026-05-04 13:35 44.22322 -4.00010 35003 ft 432 kts 186°
2026-05-04 13:36 44.16354 -4.00668 34997 ft 432 kts 186°
2026-05-04 13:36 44.10380 -4.01335 35005 ft 431 kts 186°
2026-05-04 13:37 44.04414 -4.02009 35003 ft 431 kts 186°
2026-05-04 13:37 43.98442 -4.02687 35007 ft 431 kts 187°
2026-05-04 13:38 43.92472 -4.03364 35007 ft 431 kts 187°
2026-05-04 13:38 43.86501 -4.04041 35008 ft 432 kts 186°
2026-05-04 13:39 43.80511 -4.04717 35002 ft 431 kts 187°
2026-05-04 13:39 43.74515 -4.05393 35002 ft 431 kts 187°
2026-05-04 13:40 43.68539 -4.06066 35003 ft 431 kts 187°
2026-05-04 13:40 43.62561 -4.06738 35001 ft 431 kts 187°
2026-05-04 13:41 43.56617 -4.07405 35002 ft 431 kts 187°
2026-05-04 13:41 43.50642 -4.08075 35007 ft 431 kts 187°
2026-05-04 13:42 43.41686 -4.09074 35003 ft 432 kts 187°
2026-05-04 13:42 43.35693 -4.09742 35000 ft 432 kts 187°
2026-05-04 13:43 43.29690 -4.10410 34997 ft 431 kts 187°
2026-05-04 13:43 43.23722 -4.11072 34993 ft 431 kts 187°
2026-05-04 13:44 43.17722 -4.11736 34989 ft 431 kts 187°
2026-05-04 13:44 43.11759 -4.12395 34988 ft 432 kts 187°
2026-05-04 13:45 43.05788 -4.13053 34981 ft 432 kts 188°
2026-05-04 13:45 42.99822 -4.13709 34975 ft 431 kts 187°
2026-05-04 13:46 42.93832 -4.14368 34965 ft 432 kts 187°
2026-05-04 13:46 42.87817 -4.15028 34954 ft 432 kts 187°
2026-05-04 13:47 42.81842 -4.15682 34954 ft 432 kts 188°
2026-05-04 13:47 42.75872 -4.16332 34946 ft 432 kts 188°
2026-05-04 13:48 42.69851 -4.16991 34945 ft 431 kts 188°
2026-05-04 13:48 42.63880 -4.17639 34944 ft 431 kts 188°
2026-05-04 13:49 42.57916 -4.18285 34950 ft 432 kts 188°
2026-05-04 13:49 42.51919 -4.18935 34947 ft 431 kts 188°
2026-05-04 13:50 42.45938 -4.19583 34950 ft 433 kts 188°
2026-05-04 13:50 42.39928 -4.20233 34954 ft 433 kts 188°
2026-05-04 13:51 42.33949 -4.20877 34956 ft 432 kts 188°
2026-05-04 13:51 42.27950 -4.21522 34950 ft 433 kts 188°
2026-05-04 13:52 42.18964 -4.22487 34948 ft 431 kts 188°
2026-05-04 13:53 42.12980 -4.23127 34945 ft 432 kts 188°
2026-05-04 13:53 42.06994 -4.23767 34947 ft 431 kts 189°
2026-05-04 13:54 41.98007 -4.24725 34950 ft 432 kts 189°
2026-05-04 13:55 41.88997 -4.25683 34952 ft 434 kts 189°
2026-05-04 13:55 41.80035 -4.26631 34958 ft 432 kts 189°
2026-05-04 13:56 41.74014 -4.27267 34957 ft 432 kts 189°
2026-05-04 13:57 41.65054 -4.28213 34960 ft 432 kts 189°
2026-05-04 13:58 41.53091 -4.29471 34960 ft 431 kts 189°
2026-05-04 13:58 41.44120 -4.30411 34960 ft 432 kts 190°
2026-05-04 13:59 41.38174 -4.31032 34961 ft 431 kts 190°
2026-05-04 14:00 41.29192 -4.31969 34961 ft 431 kts 190°
2026-05-04 14:00 41.20232 -4.32901 34967 ft 431 kts 190°
2026-05-04 14:01 41.14269 -4.33519 34967 ft 430 kts 190°
2026-05-04 14:02 41.05302 -4.34447 34970 ft 430 kts 190°
2026-05-04 14:02 40.99367 -4.35059 34970 ft 430 kts 190°
2026-05-04 14:03 40.93397 -4.35677 34969 ft 430 kts 190°
2026-05-04 14:03 40.87433 -4.36288 34969 ft 428 kts 191°
2026-05-04 14:04 40.78482 -4.37211 34968 ft 429 kts 191°
2026-05-04 14:04 40.72526 -4.37821 34968 ft 430 kts 191°
2026-05-04 14:05 40.63615 -4.38730 34967 ft 429 kts 191°
2026-05-04 14:06 40.57655 -4.39338 34967 ft 428 kts 191°
2026-05-04 14:06 40.51724 -4.39944 34967 ft 429 kts 191°
2026-05-04 14:07 40.45773 -4.40549 34901 ft 428 kts 191°
2026-05-04 14:07 40.39833 -4.41153 34963 ft 430 kts 191°
2026-05-04 14:08 40.33889 -4.41753 34973 ft 429 kts 191°
2026-05-04 14:08 40.27926 -4.42354 34967 ft 428 kts 191°
2026-05-04 14:09 40.19045 -4.43250 34960 ft 426 kts 191°
2026-05-04 14:10 40.10197 -4.44139 34957 ft 426 kts 191°
2026-05-04 14:10 40.04277 -4.44733 34959 ft 427 kts 191°
2026-05-04 14:11 39.98348 -4.45330 34966 ft 428 kts 191°
2026-05-04 14:11 39.89465 -4.46219 34969 ft 426 kts 191°
2026-05-04 14:12 39.83570 -4.46807 34968 ft 425 kts 191°
2026-05-04 14:13 39.74705 -4.47693 34969 ft 426 kts 191°
2026-05-04 14:13 39.68824 -4.48275 34979 ft 424 kts 191°
2026-05-04 14:14 39.62966 -4.48855 34974 ft 425 kts 191°
2026-05-04 14:14 39.54126 -4.49731 34975 ft 425 kts 192°
2026-05-04 14:15 39.42382 -4.50887 34972 ft 423 kts 192°
2026-05-04 14:16 39.33602 -4.51751 34974 ft 422 kts 192°
2026-05-04 14:17 39.24815 -4.52616 34980 ft 423 kts 192°
2026-05-04 14:18 39.16008 -4.53479 34977 ft 422 kts 192°
2026-05-04 14:19 39.04335 -4.54619 34992 ft 422 kts 192°
2026-05-04 14:19 38.98460 -4.55190 34987 ft 422 kts 192°
2026-05-04 14:20 38.92619 -4.55781 34989 ft 419 kts 193°
2026-05-04 14:20 38.86890 -4.56841 34987 ft 415 kts 197°
2026-05-04 14:21 38.78348 -4.58766 34990 ft 415 kts 197°
2026-05-04 14:21 38.72657 -4.60009 34989 ft 416 kts 197°
2026-05-04 14:22 38.66970 -4.61213 34988 ft 415 kts 197°
2026-05-04 14:22 38.61254 -4.62407 34990 ft 416 kts 197°
2026-05-04 14:23 38.52711 -4.64176 34992 ft 415 kts 197°
2026-05-04 14:24 38.47012 -4.65353 34992 ft 415 kts 197°
2026-05-04 14:24 38.41349 -4.66515 34793 ft 408 kts 197°
2026-05-04 14:24 38.38553 -4.67085 34420 ft 403 kts 197°
2026-05-04 14:25 38.35789 -4.67654 33868 ft 404 kts 197°
2026-05-04 14:25 38.30238 -4.68799 32663 ft 404 kts 197°
2026-05-04 14:25 38.27457 -4.69369 32120 ft 402 kts 197°
2026-05-04 14:26 38.24696 -4.69934 31569 ft 400 kts 196°
2026-05-04 14:26 38.21962 -4.70494 31015 ft 399 kts 196°
2026-05-04 14:26 38.19236 -4.71052 30454 ft 397 kts 196°
2026-05-04 14:26 38.16530 -4.71607 29877 ft 396 kts 196°
2026-05-04 14:27 38.13826 -4.72161 29302 ft 394 kts 196°
2026-05-04 14:27 38.11140 -4.72710 28747 ft 391 kts 196°
2026-05-04 14:27 38.08455 -4.73258 28193 ft 389 kts 196°
2026-05-04 14:27 38.05806 -4.73799 27639 ft 386 kts 196°
2026-05-04 14:28 38.03149 -4.74340 27085 ft 384 kts 196°
2026-05-04 14:28 38.00552 -4.74869 26547 ft 381 kts 196°
2026-05-04 14:28 37.97929 -4.75403 26004 ft 379 kts 196°
2026-05-04 14:28 37.95349 -4.75928 25457 ft 377 kts 196°
2026-05-04 14:29 37.90218 -4.76969 24367 ft 371 kts 196°
2026-05-04 14:29 37.85136 -4.78001 23292 ft 366 kts 196°
2026-05-04 14:30 37.82609 -4.78514 22759 ft 364 kts 196°
2026-05-04 14:30 37.80139 -4.79016 22238 ft 361 kts 195°
2026-05-04 14:30 37.75159 -4.79869 21205 ft 360 kts 190°
2026-05-04 14:31 37.72660 -4.79992 20689 ft 360 kts 187°
2026-05-04 14:31 37.67699 -4.79970 19674 ft 356 kts 186°
2026-05-04 14:32 37.62778 -4.79924 18648 ft 352 kts 186°
2026-05-04 14:32 37.60331 -4.79914 18130 ft 350 kts 186°
2026-05-04 14:32 37.58009 -4.79912 17578 ft 350 kts 186°
2026-05-04 14:32 37.55849 -4.79916 17114 ft 348 kts 186°
2026-05-04 14:33 37.53427 -4.79922 16602 ft 346 kts 185°
2026-05-04 14:33 37.51031 -4.79931 16089 ft 345 kts 186°
2026-05-04 14:33 37.48633 -4.79940 15594 ft 342 kts 185°
2026-05-04 14:33 37.46285 -4.79948 15107 ft 341 kts 185°
2026-05-04 14:34 37.43913 -4.79957 14606 ft 339 kts 185°
2026-05-04 14:34 37.41550 -4.79966 14097 ft 337 kts 185°
2026-05-04 14:34 37.39237 -4.79972 13615 ft 329 kts 185°
2026-05-04 14:34 37.36989 -4.79979 13155 ft 325 kts 184°
2026-05-04 14:35 37.34740 -4.79987 12672 ft 324 kts 184°
2026-05-04 14:35 37.32466 -4.79997 12179 ft 324 kts 184°
2026-05-04 14:35 37.30231 -4.80007 11709 ft 323 kts 184°
2026-05-04 14:35 37.27976 -4.80015 11226 ft 322 kts 184°
2026-05-04 14:36 37.25755 -4.80023 10743 ft 322 kts 184°
2026-05-04 14:36 37.23500 -4.80031 10303 ft 319 kts 183°
2026-05-04 14:36 37.21331 -4.80036 10075 ft 305 kts 184°
2026-05-04 14:36 37.19270 -4.80040 9797 ft 294 kts 184°
2026-05-04 14:37 37.17222 -4.80046 9359 ft 288 kts 184°
2026-05-04 14:37 37.15243 -4.80055 8978 ft 283 kts 183°
2026-05-04 14:37 37.13290 -4.80063 8738 ft 276 kts 183°
2026-05-04 14:37 37.11431 -4.80070 8647 ft 264 kts 184°
2026-05-04 14:38 37.09604 -4.80075 8563 ft 260 kts 184°
2026-05-04 14:38 37.07719 -4.80087 8475 ft 278 kts 183°
2026-05-04 14:38 37.05768 -4.80094 8284 ft 281 kts 183°
2026-05-04 14:38 37.03814 -4.80079 7922 ft 282 kts 182°
2026-05-04 14:39 37.01862 -4.80051 7598 ft 280 kts 181°
2026-05-04 14:39 36.99918 -4.80021 7279 ft 278 kts 182°
2026-05-04 14:39 36.97994 -4.79997 6964 ft 277 kts 181°
2026-05-04 14:40 36.94147 -4.79946 6554 ft 275 kts 180°
2026-05-04 14:40 36.92243 -4.79638 6201 ft 281 kts 168°
2026-05-04 14:40 36.90371 -4.78895 5885 ft 280 kts 162°
2026-05-04 14:40 36.88549 -4.78026 5575 ft 277 kts 161°
2026-05-04 14:41 36.86788 -4.77099 5268 ft 275 kts 155°
2026-05-04 14:41 36.85106 -4.75976 4966 ft 273 kts 153°
2026-05-04 14:41 36.81825 -4.73773 4441 ft 264 kts 154°
2026-05-04 14:42 36.78614 -4.71604 3753 ft 257 kts 151°
2026-05-04 14:42 36.77212 -4.70291 3473 ft 248 kts 135°
2026-05-04 14:42 36.76304 -4.68519 3147 ft 242 kts 111°
2026-05-04 14:43 36.75703 -4.66584 2819 ft 237 kts 113°
2026-05-04 14:43 36.74999 -4.64768 2498 ft 225 kts 117°
2026-05-04 14:43 36.74312 -4.63126 2220 ft 207 kts 118°
2026-05-04 14:43 36.73664 -4.61582 1957 ft 192 kts 117°
2026-05-04 14:44 36.73061 -4.60160 1696 ft 182 kts 118°
2026-05-04 14:44 36.72491 -4.58800 1483 ft 172 kts 119°
2026-05-04 14:44 36.71941 -4.57495 1238 ft 167 kts 120°
2026-05-04 14:44 36.71407 -4.56221 1036 ft 166 kts 120°
2026-05-04 14:45 36.70882 -4.54964 824 ft 163 kts 121°
2026-05-04 14:45 36.70354 -4.53717 608 ft 160 kts 122°
2026-05-04 14:45 36.69831 -4.52495 387 ft 157 kts 122°
2026-05-04 14:45 36.69333 -4.51306 194 ft 154 kts 122°
2026-05-04 14:46 36.68840 -4.50146 52 ft 138 kts 119°
2026-05-04 14:46 36.68506 -4.49356 49 ft 77 kts 118°
2026-05-04 14:46 36.68317 -4.48906 48 ft 50 kts 118°
2026-05-04 14:46 36.68141 -4.48584 46 ft 36 kts 138°
2026-05-04 14:47 36.68008 -4.48491 46 ft 12 kts 194°
2026-05-04 14:47 36.67992 -4.48579 47 ft 12 kts 296°
2026-05-04 14:47 36.68048 -4.48706 47 ft 21 kts 296°
2026-05-04 14:47 36.68119 -4.48877 48 ft 21 kts 297°
2026-05-04 14:48 36.68190 -4.49048 48 ft 25 kts 297°
2026-05-04 14:48 36.68268 -4.49231 49 ft 21 kts 297°
2026-05-04 14:48 36.68235 -4.49373 49 ft 18 kts 221°
2026-05-04 14:48 36.68144 -4.49471 50 ft 16 kts 221°
2026-05-04 14:49 36.68041 -4.49584 51 ft 20 kts 220°
2026-05-04 14:49 36.67938 -4.49696 52 ft 19 kts 222°
2026-05-04 14:49 36.67845 -4.49798 53 ft 16 kts 221°
2026-05-04 14:49 36.67755 -4.49847 53 ft 14 kts 152°
2026-05-04 14:50 36.67672 -4.49737 53 ft 21 kts 131°
2026-05-04 14:50 36.67578 -4.49604 53 ft 19 kts 131°
2026-05-04 14:50 36.67488 -4.49480 52 ft 18 kts 132°
2026-05-04 14:50 36.67403 -4.49360 52 ft 18 kts 128°
2026-05-04 14:51 36.67345 -4.49263 51 ft 10 kts 96°
2026-05-04 14:51 36.67359 -4.49185 50 ft 9 kts 100°
2026-05-04 14:51 36.67348 -4.49130 50 ft 2 kts 104°
2026-05-04 14:51 36.67347 -4.49125 50 ft 0 kts 104°